Location: Jackson Park
(37.2862°N, 79.9123°W)
Time: 12:09:17
(UTC+00:00)

Vanguard 2 - Pass Details

Date: 19 May 2026
Orbit: 553 x 2894 km, 32.9° (Epoch: 11 June)

Event Time Altitude Azimuth Distance (km) Brightness Sun altitude
Rises 08:59:35 0° 270° (W) 6,572 11.8 -12.4°
Reaches altitude 10° 09:03:48 10° 269° (W) 5,659 11.4 -11.7°
Maximum altitude 09:21:32 74° 189° (S) 2,800 10.2 -8.8°
Drops below altitude 10° 09:35:34 10° 108° (ESE) 4,617 12.1 -6.5°
Sets 09:38:38 0° 106° (ESE) 5,355 12.6 -5.9°
